{"data":{"norad_id":68685,"intl_designator":"2026-077Z","name":"STARLINK-36278","alt_names":[],"object_type":"PAYLOAD","status":"ACTIVE","operator":null,"country":"US","launch_date":"2026-04-11","launch_site_code":"AFWTR","launch_vehicle":null,"mission":null,"orbit_class":"UNKNOWN","rcs_meters":null,"size_class":null,"mass_kg":null,"dimensions":null,"purposes":["comms"],"wikipedia_slug":null,"has_3d_model":false,"image_url":null,"decayed_at":null,"tle_current":{"epoch":"2026-09-20T02:54:11.344896Z","epoch_age_seconds":76653,"freshness":"FRESH","line1":"1 68685U 26077Z   26263.12096464  .00021697  00000+0  67219-3 0  9998","line2":"2 68685  97.2832 136.0513 0001329  88.3420 271.7975 15.33457996 25158","mean_motion":15.33457996,"eccentricity":0.0001329,"inclination_deg":97.2832,"raan_deg":136.0513,"arg_perigee_deg":88.342,"mean_anomaly_deg":271.7975,"bstar":0.00067219,"rev_number":2515,"period_min":93.905408805211,"perigee_km":464.59498784229,"apogee_km":466.41402775507,"semimajor_km":6843.6415077987,"source":"CELESTRAK","updated_at":"2026-09-20T09:00:43.955325Z"}}}